TimeEET,TemperatureF,Dew PointF,Humidity,Sea Level PressureIn,VisibilityMPH,Wind Direction,Wind SpeedMPH,Gust SpeedMPH,PrecipitationIn,Events,Conditions,WindDirDegrees,DateUTC
12:20 AM,24.8,19.4,80,30.04,6.2,West,10.4,-,N/A,,Scattered Clouds,260,2013-01-20 22:20:00
12:50 AM,26.6,19.4,74,30.04,6.2,WSW,11.5,-,N/A,,Mostly Cloudy,250,2013-01-20 22:50:00
1:20 AM,24.8,19.4,80,30.06,6.2,WSW,9.2,-,N/A,,Mostly Cloudy,250,2013-01-20 23:20:00
1:50 AM,24.8,21.2,86,30.09,6.2,West,5.8,-,N/A,,Mostly Cloudy,270,2013-01-20 23:50:00
2:00 AM,24,21,85,,12,West,5.8,,,,Partly Cloudy,270,2013-01-21 00:00:00
2:20 AM,23.0,21.2,93,30.09,6.2,West,4.6,-,N/A,Snow,Light Snow,260,2013-01-21 00:20:00
2:50 AM,24.8,21.2,86,30.09,6.2,SW,4.6,-,N/A,Snow,Light Snow,230,2013-01-21 00:50:00
3:20 AM,24.8,21.2,86,30.09,6.2,SW,4.6,-,N/A,Snow,Light Snow,230,2013-01-21 01:20:00
3:50 AM,26.6,21.2,80,30.06,6.2,WSW,8.1,-,N/A,Snow,Light Snow,240,2013-01-21 01:50:00
4:20 AM,26.6,21.2,80,30.06,6.2,West,10.4,-,N/A,Snow,Light Snow,260,2013-01-21 02:20:00
4:50 AM,26.6,21.2,80,30.09,6.2,WNW,4.6,-,N/A,Snow,Light Snow,290,2013-01-21 02:50:00
5:20 AM,26.6,21.2,80,30.09,6.2,Variable,1.2,-,N/A,Snow,Light Snow,0,2013-01-21 03:20:00
5:50 AM,26.6,21.2,80,30.09,6.2,WSW,3.5,-,N/A,Snow,Light Snow,250,2013-01-21 03:50:00
6:20 AM,26.6,23.0,86,30.09,6.2,WSW,9.2,-,N/A,Snow,Light Snow,250,2013-01-21 04:20:00
6:50 AM,30.2,23.0,75,30.09,6.2,WSW,9.2,-,N/A,,Mostly Cloudy,240,2013-01-21 04:50:00
7:20 AM,28.4,24.8,86,30.12,6.2,West,8.1,-,N/A,,Mostly Cloudy,270,2013-01-21 05:20:00
7:50 AM,30.2,24.8,80,30.12,6.2,West,10.4,-,N/A,,Mostly Cloudy,270,2013-01-21 05:50:00
8:00 AM,29,25,78,,12,West,10.4,,,,Partly Cloudy,270,2013-01-21 06:00:00
8:20 AM,30.2,26.6,86,30.12,6.2,WSW,11.5,-,N/A,Snow,Light Snow,240,2013-01-21 06:20:00
8:50 AM,30.2,24.8,80,30.15,6.2,West,9.2,-,N/A,,Mostly Cloudy,260,2013-01-21 06:50:00
9:20 AM,30.2,26.6,86,30.15,6.2,West,9.2,-,N/A,,Mostly Cloudy,270,2013-01-21 07:20:00
9:50 AM,30.2,26.6,86,30.15,6.2,WSW,8.1,-,N/A,,Mostly Cloudy,250,2013-01-21 07:50:00
10:20 AM,32.0,26.6,80,30.15,6.2,WSW,9.2,-,N/A,,Mostly Cloudy,250,2013-01-21 08:20:00
10:50 AM,33.8,26.6,75,30.15,6.2,West,8.1,-,N/A,,Mostly Cloudy,280,2013-01-21 08:50:00
11:20 AM,33.8,28.4,81,30.15,6.2,South,3.5,-,N/A,,Mostly Cloudy,190,2013-01-21 09:20:00
11:50 AM,33.8,28.4,81,30.12,6.2,West,5.8,-,N/A,,Mostly Cloudy,270,2013-01-21 09:50:00
12:20 PM,35.6,28.4,75,30.12,6.2,WNW,10.4,-,N/A,,Mostly Cloudy,290,2013-01-21 10:20:00
12:50 PM,33.8,28.4,81,30.12,6.2,WSW,9.2,-,N/A,,Mostly Cloudy,250,2013-01-21 10:50:00
1:20 PM,35.6,28.4,75,30.12,6.2,West,4.6,-,N/A,,Mostly Cloudy,260,2013-01-21 11:20:00
1:50 PM,39.2,28.4,65,30.12,6.2,Variable,2.3,-,N/A,,Mostly Cloudy,0,2013-01-21 11:50:00
2:00 PM,38,29,59,,12,SSW,2.3,,,,Partly Cloudy,210,2013-01-21 12:00:00
2:20 PM,35.6,28.4,75,30.12,6.2,WSW,3.5,-,N/A,,Mostly Cloudy,250,2013-01-21 12:20:00
2:50 PM,33.8,28.4,81,30.12,6.2,WSW,5.8,-,N/A,,Mostly Cloudy,250,2013-01-21 12:50:00
3:20 PM,33.8,28.4,81,30.12,6.2,West,9.2,-,N/A,,Mostly Cloudy,260,2013-01-21 13:20:00
3:50 PM,33.8,28.4,81,30.15,6.2,SW,4.6,-,N/A,,Mostly Cloudy,230,2013-01-21 13:50:00
4:20 PM,32.0,28.4,87,30.15,6.2,West,3.5,-,N/A,,Mostly Cloudy,280,2013-01-21 14:20:00
4:50 PM,30.2,28.4,93,30.15,6.2,North,4.6,-,N/A,,Mostly Cloudy,360,2013-01-21 14:50:00
5:20 PM,28.4,26.6,93,30.15,6.2,Variable,2.3,-,N/A,,Mostly Cloudy,0,2013-01-21 15:20:00
5:50 PM,26.6,26.6,100,30.18,6.2,East,3.5,-,N/A,,Scattered Clouds,80,2013-01-21 15:50:00
6:20 PM,24.8,24.8,100,30.18,6.2,NE,3.5,-,N/A,,Scattered Clouds,50,2013-01-21 16:20:00
6:50 PM,24.8,23.0,93,30.18,6.2,ENE,4.6,-,N/A,,Scattered Clouds,70,2013-01-21 16:50:00
7:20 PM,23.0,23.0,100,30.18,6.2,NE,3.5,-,N/A,,Scattered Clouds,50,2013-01-21 17:20:00
7:50 PM,21.2,21.2,100,30.21,3.7,Variable,2.3,-,N/A,,Partly Cloudy,0,2013-01-21 17:50:00
8:00 PM,21,21,100,,4,SSE,2.3,,,,Mist,160,2013-01-21 18:00:00
8:20 PM,17.6,15.8,93,30.21,2.5,NW,1.2,-,N/A,,Partly Cloudy,310,2013-01-21 18:20:00
8:50 PM,19.4,19.4,100,30.21,1.0,WSW,3.5,-,N/A,,Partly Cloudy,240,2013-01-21 18:50:00
9:20 PM,15.8,15.8,100,30.21,-9999.0,Variable,2.3,-,N/A,Fog,Light Freezing Fog,0,2013-01-21 19:20:00
9:50 PM,14.0,14.0,100,30.21,0.2,West,4.6,-,N/A,Fog,Light Freezing Fog,260,2013-01-21 19:50:00
10:20 PM,14.0,12.2,93,30.21,0.2,WSW,3.5,-,N/A,Fog,Light Freezing Fog,250,2013-01-21 20:20:00
10:50 PM,14.0,12.2,93,30.18,0.2,Variable,2.3,-,N/A,Fog,Light Freezing Fog,0,2013-01-21 20:50:00
11:20 PM,12.2,10.4,92,30.18,0.2,Variable,1.2,-,N/A,Fog,Light Freezing Fog,0,2013-01-21 21:20:00
11:50 PM,10.4,10.4,100,30.18,0.2,Variable,1.2,-,N/A,Fog,Light Freezing Fog,0,2013-01-21 21:50:00